Home   Weather   Cancún   Past weeks

Flag for Mexico Past Weather in Cancún, Quintana Roo, Mexico — Yesterday and Last 2 Weeks

Now
86 °F

Partly sunny.


Feels Like: 99 °F
Forecast: 80 / 87 °F
Wind: 22 mph from Southeast

Location: Cancun International Airport

Current Time: Apr 29, 2017 at 2:43:23 pm

Latest Report: Apr 29, 2017 at 1:45 pm


Visibility: 6 mi

Pressure: 29.89 "Hg

Humidity: 79%

Dew Point: 79 °F

Location of CancúnLocation

Past Weather in Cancún — Graph

°F

Cancún Temperature Yesterday

Maximum temperature yesterday: 88 °F (at 2:49 pm)
Minimum temperature yesterday: 81 °F (at 3:42 am)
Average temperature yesterday: 83 °F

High & Low Weather Summary for the Past Weeks

 TemperatureHumidityPressure
High90 °F (Apr 23, 2:44 pm)100% (Apr 19, 3:52 pm)30.10 "Hg (Apr 19, 3:52 pm)
Low63 °F (Apr 24, 5:45 am)48% (Apr 15, 2:47 pm)29.74 "Hg (Apr 26, 3:43 pm)
Average78 °F82%29.92 "Hg
* Reported Apr 14 12:51 pm — Apr 29 12:49 pm, Cancún, Weather by CustomWeather, © 2017

Note: Actual official high and low records may vary slightly from our data, if they occured in-between our weather recording intervals... More about our weather records

Advertising

Cancún Weather History for the Previous 24 Hours

Scroll right to see more
 ConditionsComfort  
Time TempWeatherWind HumidityBarometerVisibility
12:49 pm
Sat, Apr 29
86 °FPartly sunny.18 mph75%29.92 "Hg6 mi
11:44 am86 °FPartly sunny.16 mph79%29.94 "Hg6 mi
10:46 am86 °FPartly sunny.26 mph75%29.94 "Hg6 mi
9:45 am86 °FPartly sunny.18 mph75%29.95 "Hg6 mi
8:47 am84 °FPartly sunny.12 mph79%29.95 "Hg6 mi
7:47 am82 °FPartly sunny.16 mph89%29.94 "Hg6 mi
6:45 am81 °FPassing clouds.20 mph89%29.93 "Hg7 mi
5:46 am81 °FPassing clouds.16 mph94%29.91 "Hg7 mi
4:47 am81 °FPassing clouds.16 mph94%29.90 "Hg7 mi
3:48 am81 °FPartly cloudy.17 mph94%29.88 "Hg7 mi
2:43 am81 °FPassing clouds.18 mph94%29.89 "Hg7 mi
1:44 am81 °FPassing clouds.17 mph94%29.90 "Hg7 mi
12:45 am81 °FPassing clouds.18 mph94%29.91 "Hg7 mi
11:46 pm
Fri, Apr 28
82 °FPassing clouds.18 mph89%29.92 "Hg6 mi
10:47 pm82 °FPassing clouds.20 mph89%29.93 "Hg6 mi
9:48 pm82 °FPassing clouds.20 mph89%29.92 "Hg6 mi
8:46 pm82 °FPassing clouds.18 mph89%29.89 "Hg6 mi
7:46 pm82 °FPartly sunny.14 mph89%29.88 "Hg6 mi
6:44 pm82 °FPartly sunny.10 mph89%29.87 "Hg6 mi
5:44 pm84 °FPartly sunny.17 mph89%29.86 "Hg6 mi
4:45 pm84 °FPartly sunny.18 mph84%29.85 "Hg6 mi
3:46 pm84 °FPartly sunny.16 mph84%29.85 "Hg6 mi
2:49 pm88 °FPartly sunny.21 mph75%29.87 "Hg7 mi
Weather by CustomWeather, © 2017

See weather overviewHow to use our weather pages